User: anonymous   Login
Location: Unspecified
(0.0000°N, 0.0000°E)
Time: 16:51:42
(UTC+00:00)
Language:

Vela 3B - Orbit

View from above orbital plane
View from above orbital plane
View from above satellite
View from above satellite

Ground track
Ground track

The orbit data is extracted from the following two-line orbital elements,

1 01459U 65058B   16276.02037761 -.00001277  00000-0  00000+0 0  9998
2 01459   8.3696  62.7011 4538829 297.4558 358.1224  0.21416514 40451
Epoch (UTC): 02 October 2016 00:29:20
Eccentricity: 0.4538829
inclination: 8.3696°
perigee height: 58066 km
apogee height: 165186 km
right ascension of ascending node: 62.7011°
argument of perigee: 297.4558°
revolutions per day: 0.21416514
mean anomaly at epoch: 358.1224°
orbit number at epoch: 4045

The dashed part of the orbit path shows where the satellite is in the earth's shadow,  

DLR